﻿測定場所 (Monitoring sites),日付 (Measurement date),時間 (Measurement time),線量率 最大値 (max) μGy/h,線量率 最小値 (min) μGy/h,線量率 平均値 (average) μGy/h,
新宿 (Shinjuku),2020-02-02,23:01～24:00,0.0384,0.0349,0.0364,
新宿 (Shinjuku),2020-02-02,22:01～23:00,0.0404,0.0344,0.0364,
新宿 (Shinjuku),2020-02-02,21:01～22:00,0.0388,0.0344,0.0365,
新宿 (Shinjuku),2020-02-02,20:01～21:00,0.0398,0.0343,0.0365,
新宿 (Shinjuku),2020-02-02,19:01～20:00,0.0387,0.0343,0.0365,
新宿 (Shinjuku),2020-02-02,18:01～19:00,0.0394,0.0337,0.0364,
新宿 (Shinjuku),2020-02-02,17:01～18:00,0.0402,0.0347,0.0365,
新宿 (Shinjuku),2020-02-02,16:01～17:00,0.0393,0.0335,0.0364,
新宿 (Shinjuku),2020-02-02,15:01～16:00,0.0398,0.0347,0.0365,
新宿 (Shinjuku),2020-02-02,14:01～15:00,0.0398,0.0342,0.0366,
新宿 (Shinjuku),2020-02-02,13:01～14:00,0.0398,0.0346,0.0367,
新宿 (Shinjuku),2020-02-02,12:01～13:00,0.0384,0.0341,0.0364,
新宿 (Shinjuku),2020-02-02,11:01～12:00,0.0394,0.0345,0.0363,
新宿 (Shinjuku),2020-02-02,10:01～11:00,0.0396,0.0337,0.0365,
新宿 (Shinjuku),2020-02-02,09:01～10:00,0.0396,0.0349,0.0365,
新宿 (Shinjuku),2020-02-02,08:01～09:00,0.0398,0.0342,0.0363,
新宿 (Shinjuku),2020-02-02,07:01～08:00,0.0389,0.0342,0.0364,
新宿 (Shinjuku),2020-02-02,06:01～07:00,0.0389,0.0336,0.0361,
新宿 (Shinjuku),2020-02-02,05:01～06:00,0.0383,0.0337,0.0361,
新宿 (Shinjuku),2020-02-02,04:01～05:00,0.0388,0.0339,0.0364,
新宿 (Shinjuku),2020-02-02,03:01～04:00,0.0395,0.0341,0.0366,
新宿 (Shinjuku),2020-02-02,02:01～03:00,0.0385,0.0340,0.0362,
新宿 (Shinjuku),2020-02-02,01:01～02:00,0.0380,0.0332,0.0360,
新宿 (Shinjuku),2020-02-02,00:01～01:00,0.0403,0.0342,0.0363,
新宿 (Shinjuku),2020-02-01,23:01～24:00,0.0389,0.0341,0.0363,
新宿 (Shinjuku),2020-02-01,22:01～23:00,0.0385,0.0342,0.0364,
新宿 (Shinjuku),2020-02-01,21:01～22:00,0.0390,0.0349,0.0361,
新宿 (Shinjuku),2020-02-01,20:01～21:00,0.0377,0.0339,0.0360,
新宿 (Shinjuku),2020-02-01,19:01～20:00,0.0389,0.0341,0.0362,
新宿 (Shinjuku),2020-02-01,18:01～19:00,0.0407,0.0337,0.0361,
新宿 (Shinjuku),2020-02-01,17:01～18:00,0.0387,0.0342,0.0364,
新宿 (Shinjuku),2020-02-01,16:01～17:00,0.0393,0.0335,0.0361,
新宿 (Shinjuku),2020-02-01,15:01～16:00,0.0401,0.0335,0.0363,
新宿 (Shinjuku),2020-02-01,14:01～15:00,0.0388,0.0339,0.0362,
新宿 (Shinjuku),2020-02-01,13:01～14:00,0.0385,0.0338,0.0363,
新宿 (Shinjuku),2020-02-01,12:01～13:00,0.0392,0.0338,0.0362,
新宿 (Shinjuku),2020-02-01,11:01～12:00,0.0396,0.0338,0.0365,
新宿 (Shinjuku),2020-02-01,10:01～11:00,0.0388,0.0342,0.0362,
新宿 (Shinjuku),2020-02-01,09:01～10:00,0.0387,0.0346,0.0364,
新宿 (Shinjuku),2020-02-01,08:01～09:00,0.0407,0.0344,0.0364,
新宿 (Shinjuku),2020-02-01,07:01～08:00,0.0406,0.0336,0.0362,
新宿 (Shinjuku),2020-02-01,06:01～07:00,0.0386,0.0343,0.0363,
新宿 (Shinjuku),2020-02-01,05:01～06:00,0.0398,0.0340,0.0363,
新宿 (Shinjuku),2020-02-01,04:01～05:00,0.0389,0.0344,0.0366,
新宿 (Shinjuku),2020-02-01,03:01～04:00,0.0384,0.0341,0.0364,
新宿 (Shinjuku),2020-02-01,02:01～03:00,0.0407,0.0339,0.0364,
新宿 (Shinjuku),2020-02-01,01:01～02:00,0.0396,0.0346,0.0365,
新宿 (Shinjuku),2020-02-01,00:01～01:00,0.0392,0.0348,0.0364,
新宿 (Shinjuku),2020-01-31,23:01～24:00,0.0404,0.0342,0.0367,
新宿 (Shinjuku),2020-01-31,22:01～23:00,0.0409,0.0342,0.0367,
新宿 (Shinjuku),2020-01-31,21:01～22:00,0.0397,0.0345,0.0369,
新宿 (Shinjuku),2020-01-31,20:01～21:00,0.0388,0.0346,0.0366,
新宿 (Shinjuku),2020-01-31,19:01～20:00,0.0401,0.0350,0.0367,
新宿 (Shinjuku),2020-01-31,18:01～19:00,0.0396,0.0345,0.0368,
新宿 (Shinjuku),2020-01-31,17:01～18:00,0.0407,0.0351,0.0369,
新宿 (Shinjuku),2020-01-31,16:01～17:00,0.0395,0.0343,0.0367,
新宿 (Shinjuku),2020-01-31,15:01～16:00,0.0408,0.0348,0.0366,
新宿 (Shinjuku),2020-01-31,14:01～15:00,0.0394,0.0347,0.0364,
新宿 (Shinjuku),2020-01-31,13:01～14:00,0.0393,0.0326,0.0363,
新宿 (Shinjuku),2020-01-31,12:01～13:00,0.0402,0.0340,0.0364,
新宿 (Shinjuku),2020-01-31,11:01～12:00,0.0385,0.0337,0.0363,
新宿 (Shinjuku),2020-01-31,10:01～11:00,0.0396,0.0345,0.0363,
新宿 (Shinjuku),2020-01-31,09:01～10:00,0.0396,0.0339,0.0364,
新宿 (Shinjuku),2020-01-31,08:01～09:00,0.0403,0.0336,0.0363,
新宿 (Shinjuku),2020-01-31,07:01～08:00,0.0395,0.0342,0.0365,
新宿 (Shinjuku),2020-01-31,06:01～07:00,0.0396,0.0334,0.0365,
新宿 (Shinjuku),2020-01-31,05:01～06:00,0.0392,0.0340,0.0362,
新宿 (Shinjuku),2020-01-31,04:01～05:00,0.0421,0.0347,0.0364,
新宿 (Shinjuku),2020-01-31,03:01～04:00,0.0390,0.0337,0.0363,
新宿 (Shinjuku),2020-01-31,02:01～03:00,0.0386,0.0346,0.0364,
新宿 (Shinjuku),2020-01-31,01:01～02:00,0.0396,0.0338,0.0363,
新宿 (Shinjuku),2020-01-31,00:01～01:00,0.0398,0.0333,0.0363,
新宿 (Shinjuku),2020-01-30,23:01～24:00,0.0382,0.0342,0.0362,
新宿 (Shinjuku),2020-01-30,22:01～23:00,0.0377,0.0340,0.0360,
新宿 (Shinjuku),2020-01-30,21:01～22:00,0.0392,0.0339,0.0364,
新宿 (Shinjuku),2020-01-30,20:01～21:00,0.0390,0.0341,0.0362,
新宿 (Shinjuku),2020-01-30,19:01～20:00,0.0387,0.0331,0.0363,
新宿 (Shinjuku),2020-01-30,18:01～19:00,0.0392,0.0336,0.0364,
新宿 (Shinjuku),2020-01-30,17:01～18:00,0.0394,0.0344,0.0364,
新宿 (Shinjuku),2020-01-30,16:01～17:00,0.0409,0.0343,0.0365,
新宿 (Shinjuku),2020-01-30,15:01～16:00,0.0393,0.0347,0.0366,
新宿 (Shinjuku),2020-01-30,14:01～15:00,0.0405,0.0347,0.0366,
新宿 (Shinjuku),2020-01-30,13:01～14:00,0.0389,0.0345,0.0366,
新宿 (Shinjuku),2020-01-30,12:01～13:00,0.0397,0.0349,0.0370,
新宿 (Shinjuku),2020-01-30,11:01～12:00,0.0403,0.0347,0.0368,
新宿 (Shinjuku),2020-01-30,10:01～11:00,0.0407,0.0339,0.0365,
新宿 (Shinjuku),2020-01-30,09:01～10:00,0.0394,0.0336,0.0364,
新宿 (Shinjuku),2020-01-30,08:01～09:00,0.0398,0.0342,0.0368,
新宿 (Shinjuku),2020-01-30,07:01～08:00,0.0389,0.0349,0.0367,
新宿 (Shinjuku),2020-01-30,06:01～07:00,0.0395,0.0346,0.0367,
新宿 (Shinjuku),2020-01-30,05:01～06:00,0.0396,0.0340,0.0364,
新宿 (Shinjuku),2020-01-30,04:01～05:00,0.0395,0.0342,0.0364,
新宿 (Shinjuku),2020-01-30,03:01～04:00,0.0385,0.0346,0.0365,
新宿 (Shinjuku),2020-01-30,02:01～03:00,0.0387,0.0340,0.0362,
新宿 (Shinjuku),2020-01-30,01:01～02:00,0.0400,0.0347,0.0366,
新宿 (Shinjuku),2020-01-30,00:01～01:00,0.0393,0.0348,0.0365,
新宿 (Shinjuku),2020-01-29,23:01～24:00,0.0390,0.0340,0.0362,
新宿 (Shinjuku),2020-01-29,22:01～23:00,0.0396,0.0339,0.0365,
新宿 (Shinjuku),2020-01-29,21:01～22:00,0.0394,0.0345,0.0365,
新宿 (Shinjuku),2020-01-29,20:01～21:00,0.0402,0.0346,0.0366,
新宿 (Shinjuku),2020-01-29,19:01～20:00,0.0393,0.0343,0.0364,
新宿 (Shinjuku),2020-01-29,18:01～19:00,0.0406,0.0340,0.0362,
新宿 (Shinjuku),2020-01-29,17:01～18:00,0.0394,0.0341,0.0365,
新宿 (Shinjuku),2020-01-29,16:01～17:00,0.0384,0.0340,0.0360,
新宿 (Shinjuku),2020-01-29,15:01～16:00,0.0395,0.0339,0.0363,
新宿 (Shinjuku),2020-01-29,14:01～15:00,0.0385,0.0340,0.0362,
新宿 (Shinjuku),2020-01-29,13:01～14:00,0.0394,0.0341,0.0361,
新宿 (Shinjuku),2020-01-29,12:01～13:00,0.0376,0.0344,0.0361,
新宿 (Shinjuku),2020-01-29,11:01～12:00,0.0388,0.0329,0.0362,
新宿 (Shinjuku),2020-01-29,10:01～11:00,0.0375,0.0332,0.0361,
新宿 (Shinjuku),2020-01-29,09:01～10:00,0.0394,0.0341,0.0362,
新宿 (Shinjuku),2020-01-29,08:01～09:00,0.0405,0.0349,0.0365,
新宿 (Shinjuku),2020-01-29,07:01～08:00,0.0426,0.0351,0.0379,
新宿 (Shinjuku),2020-01-29,06:01～07:00,0.0451,0.0363,0.0404,
新宿 (Shinjuku),2020-01-29,05:01～06:00,0.0451,0.0379,0.0409,
新宿 (Shinjuku),2020-01-29,04:01～05:00,0.0472,0.0382,0.0427,
新宿 (Shinjuku),2020-01-29,03:01～04:00,0.0525,0.0417,0.0472,
新宿 (Shinjuku),2020-01-29,02:01～03:00,0.0527,0.0460,0.0492,
新宿 (Shinjuku),2020-01-29,01:01～02:00,0.0523,0.0451,0.0487,
新宿 (Shinjuku),2020-01-29,00:01～01:00,0.0530,0.0448,0.0488,
新宿 (Shinjuku),2020-01-28,23:01～24:00,0.0527,0.0446,0.0491,
新宿 (Shinjuku),2020-01-28,22:01～23:00,0.0517,0.0454,0.0493,
新宿 (Shinjuku),2020-01-28,21:01～22:00,0.0537,0.0457,0.0492,
新宿 (Shinjuku),2020-01-28,20:01～21:00,0.0519,0.0447,0.0479,
新宿 (Shinjuku),2020-01-28,19:01～20:00,0.0499,0.0430,0.0467,
新宿 (Shinjuku),2020-01-28,18:01～19:00,0.0513,0.0427,0.0475,
新宿 (Shinjuku),2020-01-28,17:01～18:00,0.0531,0.0450,0.0485,
新宿 (Shinjuku),2020-01-28,16:01～17:00,0.0529,0.0450,0.0482,
新宿 (Shinjuku),2020-01-28,15:01～16:00,0.0534,0.0447,0.0486,
新宿 (Shinjuku),2020-01-28,14:01～15:00,0.0531,0.0431,0.0471,
新宿 (Shinjuku),2020-01-28,13:01～14:00,0.0522,0.0441,0.0474,
新宿 (Shinjuku),2020-01-28,12:01～13:00,0.0513,0.0432,0.0468,
新宿 (Shinjuku),2020-01-28,11:01～12:00,0.0530,0.0425,0.0466,
新宿 (Shinjuku),2020-01-28,10:01～11:00,0.0525,0.0439,0.0484,
新宿 (Shinjuku),2020-01-28,09:01～10:00,0.0530,0.0432,0.0477,
新宿 (Shinjuku),2020-01-28,08:01～09:00,0.0528,0.0442,0.0491,
新宿 (Shinjuku),2020-01-28,07:01～08:00,0.0526,0.0449,0.0488,
新宿 (Shinjuku),2020-01-28,06:01～07:00,0.0522,0.0443,0.0481,
新宿 (Shinjuku),2020-01-28,05:01～06:00,0.0503,0.0416,0.0459,
新宿 (Shinjuku),2020-01-28,04:01～05:00,0.0501,0.0428,0.0475,
新宿 (Shinjuku),2020-01-28,03:01～04:00,0.0543,0.0442,0.0493,
新宿 (Shinjuku),2020-01-28,02:01～03:00,0.0528,0.0400,0.0462,
新宿 (Shinjuku),2020-01-28,01:01～02:00,0.0518,0.0407,0.0451,
新宿 (Shinjuku),2020-01-28,00:01～01:00,0.0522,0.0421,0.0470,
新宿 (Shinjuku),2020-01-27,23:01～24:00,0.0473,0.0389,0.0439,
新宿 (Shinjuku),2020-01-27,22:01～23:00,0.0458,0.0390,0.0428,
新宿 (Shinjuku),2020-01-27,21:01～22:00,0.0468,0.0402,0.0428,
新宿 (Shinjuku),2020-01-27,20:01～21:00,0.0471,0.0387,0.0418,
新宿 (Shinjuku),2020-01-27,19:01～20:00,0.0433,0.0348,0.0374,
新宿 (Shinjuku),2020-01-27,18:01～19:00,0.0391,0.0345,0.0365,
新宿 (Shinjuku),2020-01-27,17:01～18:00,0.0386,0.0343,0.0364,
新宿 (Shinjuku),2020-01-27,16:01～17:00,0.0396,0.0337,0.0362,
新宿 (Shinjuku),2020-01-27,15:01～16:00,0.0404,0.0344,0.0364,
新宿 (Shinjuku),2020-01-27,14:01～15:00,0.0394,0.0339,0.0367,
新宿 (Shinjuku),2020-01-27,13:01～14:00,0.0406,0.0348,0.0366,
新宿 (Shinjuku),2020-01-27,12:01～13:00,0.0387,0.0352,0.0366,
新宿 (Shinjuku),2020-01-27,11:01～12:00,0.0403,0.0345,0.0367,
新宿 (Shinjuku),2020-01-27,10:01～11:00,0.0414,0.0351,0.0371,
新宿 (Shinjuku),2020-01-27,09:01～10:00,0.0393,0.0334,0.0369,
新宿 (Shinjuku),2020-01-27,08:01～09:00,0.0401,0.0341,0.0370,
新宿 (Shinjuku),2020-01-27,07:01～08:00,0.0389,0.0345,0.0367,
新宿 (Shinjuku),2020-01-27,06:01～07:00,0.0400,0.0332,0.0366,
新宿 (Shinjuku),2020-01-27,05:01～06:00,0.0384,0.0346,0.0365,
新宿 (Shinjuku),2020-01-27,04:01～05:00,0.0401,0.0350,0.0365,
新宿 (Shinjuku),2020-01-27,03:01～04:00,0.0391,0.0348,0.0365,
新宿 (Shinjuku),2020-01-27,02:01～03:00,0.0406,0.0343,0.0366,
新宿 (Shinjuku),2020-01-27,01:01～02:00,0.0412,0.0334,0.0366,
新宿 (Shinjuku),2020-01-27,00:01～01:00,0.0390,0.0346,0.0362,
